Погода в Кетрисановке

Украина / Кировоградская область     47°54′39″N   32°10′09″E
темп.,
°C
ветер,
м/с
пор.,
м/с
влажн.,
%
обл.,
%
осадки,
мм/ч
давл.,
гПа
погр.,
м
11 апреля, вс
вс1100:00+6св33502 0.0 102734
03:00+5с33520 0.0 102725
06:00+4ссв45540 0.0 102868
09:00+9ссв57470 0.0 1028415
12:00+13св56381 0.0 10271570
15:00+14ссв66365 0.0 10261686
18:00+14ссв56425 0.0 10251545
21:00+9с4956100 0.0 1026176
12 апреля, пн
пн1200:00+8с4860100 0.0 1025142
03:00+7с496359 0.0 1024160
06:00+5с41069100 0.0 1023192
09:00+9ссв5959100 0.0 1022413
12:00+9св4669100 0.0 1021446
15:00+9св3486100 0.6 1021427
18:00+9св338597 0.1 1020300
21:00+7в129366 0.1 102117
13 апреля, вт
вт1300:00+7зюз2293100 0.0 102113
03:00+6юз1194100 0.0 102112
06:00+6ю229456 0.0 102114
09:00+9ююв2378100 0.0 1021286
12:00+13ю4463100 0.0 10201028
15:00+14ю4460100 0.0 10191282
18:00+13ю2467100 0.0 1019440
21:00+10ююз376981 0.0 1020229
14 апреля, ср
ср1400:00+7ююз35815 0.0 1020104
03:00+6ю35856 0.0 101984
06:00+5ю33895 0.0 101947
09:00+10ююв45725 0.0 1018403
12:00+14ююв675694 0.0 10171571
15:00+14ю4759100 0.0 10161290
18:00+13ююв3567100 0.0 1015231
21:00+10з2372100 0.1 101547
15 апреля, чт
чт1500:00+10всв1271100 0.0 101522
03:00+9вюв348096 0.0 101478
06:00+8в3578100 0.0 1014172
09:00+9юв5676100 0.3 1014480
12:00+9юв5689100 4.6 1013446
15:00+9юв5992100 5.6 1012728
18:00+10ю478098 1.2 1012752
21:00+8ю5979100 1.3 1012445